Weather in Dimitrovo

Russia / Jewish Autonomous Oblast     48°23′43″N   132°34′40″E
temp.,
°C
wind,
m/s
gust,
m/s
humid.,
%
clouds,
%
prec.,
mm/h
press.,
hPa
HPBL,
m
14 may, fri
fri1401:00+9wnw34855 0.0 100840
04:00+8wnw33871 0.0 100920
07:00+9wnw23821 0.0 101090
10:00+14w226031 0.0 1010423
13:00+19ssw2341100 0.0 10091058
16:00+22ssw5631100 0.0 10072034
19:00+20sse5843100 0.0 1006171
22:00+16se4950100 0.0 1005148
15 may, sat
sat1501:00+15se51147100 0.0 1001213
04:00+14s61391100 1.0 999569
07:00+13ssw61393100 3.2 996685
10:00+13wnw101376100 4.2 9981056
13:00+17w1013425 0.0 9992305
16:00+16w101348100 0.1 10002148
19:00+15wnw9145411 0.1 10011666
22:00+11w915655 0.1 1003579
16 may, sun
sun1601:00+11w915625 0.0 1003446
04:00+9w8136813 0.0 1003333
07:00+10w714700 0.0 1004667
10:00+15wnw1013480 0.0 10041368
13:00+20wnw914301 0.0 10032892
16:00+22wnw8122276 0.0 10013469
19:00+21w69308 0.0 1000258
22:00+15ssw584820 0.0 100199
17 may, mon
mon1701:00+14sw715499 0.0 1000248
04:00+11wsw35590 0.0 100064
07:00+12sw34600 0.0 1001106
10:00+18wsw46390 0.0 1000582
13:00+23w10142717 0.0 9983255
16:00+24wnw9112854 0.0 9972890
19:00+21nw810355 0.0 9991176
22:00+15nnw22472 0.0 100112
18 may, tue
tue1801:00+13nnw22510 0.0 100313
04:00+11e01570 0.0 100311
07:00+12sse125259 0.0 100493
10:00+17se453977 0.0 1003627
13:00+22s68373 0.0 10011426
16:00+26sw693135 0.0 9971813
19:00+25s8133544 0.0 996497
22:00+20wnw3649100 0.1 998132